Location: Austin
(30.3000°N, 97.7500°W)
Time: 10:35:02
(UTC-05:00)

YAOGAN 1 - Pass Details

Date: 26 May 2023
Orbit: 615 x 617 km, 97.8° (Epoch: 31 May)

Event Time Altitude Azimuth Distance (km) Brightness Sun altitude
Rises 21:03:55 0° 189° (S) 2,870 5.8 -8.3°
Reaches altitude 10° 21:06:17 10° 200° (SSW) 1,969 5.0 -8.7°
Maximum altitude 21:10:04 30° 262° (W) 1,099 4.4 -9.4°
Drops below altitude 10° 21:13:52 10° 324° (NW) 1,978 6.4 -10.1°
Sets 21:16:16 0° 335° (NNW) 2,887 7.0 -10.6°
